Starlink 11247

operational
NORAD ID: 60720 Int'l Des: 2024-152 Owner: SPXS Country: US Constellation: starlink
LEOCIRCULAR

Über Starlink 11247

Beschreibung wird geladen...

Live-Position

3D-Globus wird geladen...

Nächste Überflüge

Höhenverlauf

Altitude vs Time

uPlot chart will show altitude changes over time

Zweizeiliger Elementsatz

1 60720U 24152A 25351.76560725 .00000706 00000-0 10680-4 0 9995
2 60720 53.1594 160.4343 0001084 86.0831 274.0311 15.69713812 75962
Epoch: 17. Dez. 2025 • Age: 24 hours

Aktueller Status

Höhe 360.8 km
Geschwindigkeit 7.69 km/s
Subsatellitenpunkt -1.01°S, 144.75°E
Startdatum 28. Aug. 2024
Alter 1.3 years
Typ internet

Technische Details

Klassifizierung Payload
Masse 960.00 kg
Trockenmasse 910.00 kg
Gesamtmasse 960.00 kg
Länge 0.30 m
Durchmesser 4.10 m
Spannweite 29.00 m
Form Box + pan
Hersteller SPXS
Bus-Typ Starlink V2MD
Phasenstatus In Orbit
Besitzer/Staat SPXS/US

Große Konstellationen

Loading constellations...